Location: Coupvray
(48.8929°N, 2.7967°E)
Time: 10:48:56
(UTC+00:00)

Altair 2 - Pass Details

Date: 19 January 2021
Orbit: 837 x 949 km, 90.2° (Epoch: 26 February)

Event Time Altitude Azimuth Distance (km) Brightness Sun altitude
Rises 06:01:48 0° 3° (N) 3,434 10.8 -14.8°
Reaches altitude 10° 06:04:12 10° 7° (N) 2,505 10.1 -14.4°
Maximum altitude 06:09:48 66° 89° (E) 957 8.2 -13.5°
Drops below altitude 10° 06:15:31 10° 172° (S) 2,559 10.5 -12.6°
Sets 06:18:00 0° 175° (S) 3,512 11.2 -12.2°
